DateTimeUTC,F1_A11,F1_S11,BsB_S11,BsG_S11,BsR_S11,BbsB_S11,BbsG_S11,BbsR_S11,BaB_A11,BaG_A11,BaR_A11,Tu_S11,T_S11,Uu_S11,U_S11,P_S11,T1_A11
2021-06-25T08:00:00Z,00000200,20000000,,,,,,,-000.08,-000.01,-000.05,18.2,24.9,11.2,07.4,0660.9,31.1
2021-06-25T08:01:00Z,00000200,20000000,,,,,,,-000.13,-000.23,-000.09,18.2,24.9,11.2,07.4,0660.9,31.2
2021-06-25T08:02:00Z,00000200,20000000,,,,,,,0000.00,-000.03,0000.07,18.2,24.9,11.2,07.4,0660.9,31.1
2021-06-25T08:03:00Z,00000200,60000000,,,,,,,0000.24,0000.01,-000.01,18.2,24.9,11.2,07.4,0660.9,31.1
2021-06-25T08:04:00Z,00000200,40000000,0000.22,0000.05,-000.01,0000.09,0000.15,0000.18,-000.02,0000.46,0000.32,18.3,24.7,11.2,07.6,0661.7,31.1
2021-06-25T08:05:00Z,00000200,00000000,-000.19,0000.10,-000.12,0000.33,-000.18,-000.05,-000.09,-000.45,-000.09,18.3,24.7,11.1,07.5,0661.8,31.1
2021-06-25T08:06:00Z,00000200,00000000,-000.12,-000.04,-000.23,0000.16,0000.19,0000.06,-000.03,0000.22,-000.36,18.3,24.7,11.2,07.6,0661.8,31.1
2021-06-25T08:07:00Z,00000200,00000000,0000.09,-000.09,-000.16,-000.16,-000.07,-000.06,-000.10,-000.35,0000.39,18.3,24.7,11.2,07.6,0661.8,31.1
2021-06-25T08:08:00Z,00000200,00000000,0000.51,-000.00,-000.11,0000.24,-000.07,-000.13,0000.01,0000.20,-000.31,18.3,24.7,11.2,07.6,0661.8,31.1
2021-06-25T08:09:00Z,00000200,00000000,0000.33,0000.08,-000.16,0000.15,0000.17,-000.12,-000.02,0000.02,0000.06,18.4,24.7,11.2,07.6,0661.8,31.1
2021-06-25T08:10:00Z,00000200,00000000,0000.68,0000.11,-000.10,-000.26,0000.17,0000.05,-000.06,0000.48,0000.19,18.4,24.7,11.1,07.5,0661.8,31.1
2021-06-25T08:11:00Z,00000200,00000000,0000.01,-000.13,0000.03,0000.07,0000.04,-000.13,0000.09,-000.48,0000.04,18.4,24.7,11.1,07.6,0661.8,31.1
2021-06-25T08:12:00Z,00000200,00000000,-000.13,-000.14,-000.22,-000.90,0000.00,0000.02,-000.03,-000.07,-000.28,18.4,24.7,11.1,07.6,0661.8,31.2
2021-06-25T08:13:00Z,00000200,00000000,-000.13,0000.09,0000.01,-000.27,-000.20,0000.12,0000.03,-000.11,-000.01,18.4,24.7,11.1,07.5,0661.8,31.1
2021-06-25T08:14:00Z,00000200,00000000,0000.73,0000.10,0000.11,0000.11,0000.40,-000.04,0000.07,0000.36,0000.09,18.4,24.7,11.1,07.5,0661.8,31.1
2021-06-25T08:15:00Z,00000200,00000000,-000.18,-000.01,0000.02,-000.02,0000.19,-000.04,-000.19,-000.14,-000.11,18.4,24.7,11.1,07.6,0661.9,31.1
2021-06-25T08:16:00Z,00000200,00000000,-000.44,0000.29,-000.08,-000.22,-000.10,0000.30,0000.38,0000.07,0000.22,18.4,24.6,11.1,07.6,0661.9,31.1
2021-06-25T08:17:00Z,00000200,00000000,0000.33,0000.18,0000.11,-000.30,-000.03,-000.02,-000.03,-000.25,0000.12,18.4,24.7,11.3,07.7,0661.9,31.1
2021-06-25T08:18:00Z,00000200,00000000,0000.60,-000.00,-000.29,0000.21,0000.27,-000.12,0000.02,0000.17,-000.21,18.4,24.6,11.3,07.7,0661.9,31.1
2021-06-25T08:19:00Z,00000200,00000000,0000.64,-000.27,0000.00,0000.14,0000.13,0000.02,0000.03,0000.03,0000.28,18.4,24.7,11.4,07.7,0661.9,31.1
2021-06-25T08:20:00Z,00000200,00000000,-000.24,-000.08,-000.03,-000.08,0000.13,-000.03,0000.09,0000.46,-000.36,18.4,24.7,11.3,07.7,0661.9,31.1
2021-06-25T08:21:00Z,00000200,00000000,0000.35,0000.05,-000.10,0000.75,-000.15,0000.05,-000.09,-000.50,0000.29,18.4,24.6,11.4,07.7,0661.9,31.1
2021-06-25T08:22:00Z,00000200,00000000,0000.32,0000.07,0000.12,0000.16,0000.01,-000.44,-000.07,0000.07,-000.11,18.4,24.7,11.4,07.8,0661.9,31.1
2021-06-25T08:23:00Z,00000200,00000000,0000.10,0000.16,-000.03,0000.28,0000.13,0000.17,-000.07,0000.00,0000.07,18.4,24.7,11.5,07.8,0661.9,31.1
2021-06-25T08:24:00Z,00000200,00000000,0000.73,0000.02,-000.07,-000.27,-000.05,-000.01,0000.09,0000.04,-000.13,18.4,24.7,11.4,07.8,0662.0,31.1
2021-06-25T08:25:00Z,00000200,00000000,-000.22,-000.10,-000.32,-000.43,0000.26,0000.11,-000.08,0000.15,-000.13,18.4,24.7,11.4,07.7,0661.9,31.1
2021-06-25T08:26:00Z,00000200,00000000,-000.08,0000.02,-000.15,-000.07,-000.04,-000.30,0000.15,-000.15,-000.05,18.4,24.6,11.4,07.8,0662.0,31.1
2021-06-25T08:27:00Z,00000200,00000000,-000.29,0000.31,0000.29,0000.57,-000.10,-000.19,0000.15,0000.14,0000.14,18.4,24.7,11.4,07.8,0661.9,31.1
2021-06-25T08:28:00Z,00000200,00000000,0000.29,0000.09,0000.07,0000.06,-000.17,0000.08,-000.22,-000.22,0000.13,18.4,24.7,11.4,07.8,0662.0,31.1
2021-06-25T08:29:00Z,00000200,00000000,0000.10,0000.19,0000.04,-000.20,-000.06,-000.13,0000.19,0000.20,0000.10,18.4,24.7,11.5,07.8,0662.0,31.1
2021-06-25T08:30:00Z,00000200,00000000,0000.25,0000.40,0000.25,0000.21,0000.10,0000.14,0000.15,0000.43,-000.00,18.4,24.7,11.6,07.9,0661.9,31.1
2021-06-25T08:31:00Z,00000200,00000000,0000.40,0000.03,-000.13,0000.20,-000.09,-000.08,-000.36,-000.43,-000.16,18.4,24.7,11.6,07.9,0661.9,31.1
2021-06-25T08:32:00Z,00000200,00000000,0000.27,-000.08,-000.02,-000.20,0000.15,-000.06,0000.32,0000.15,0000.25,18.4,24.7,11.6,07.9,0661.9,31.1
2021-06-25T08:33:00Z,00000200,00000000,-000.42,-000.07,0000.28,-000.24,0000.01,0000.10,0000.13,0000.29,0000.26,18.4,24.7,11.7,08.0,0661.9,31.1
2021-06-25T08:34:00Z,00000200,00000000,0000.42,0000.18,-000.14,0000.07,0000.09,0000.02,-000.03,-000.16,-000.35,18.4,24.7,11.8,08.1,0661.9,31.1
2021-06-25T08:35:00Z,00000200,00000000,0000.32,0000.22,-000.31,0000.19,0000.04,-000.40,-000.21,0000.13,-000.02,18.4,24.7,11.9,08.1,0661.9,31.1
2021-06-25T08:36:00Z,00000200,00000000,-000.05,-000.20,-000.14,0000.15,0000.13,-000.33,0000.39,-000.19,0000.24,18.4,24.7,12.0,08.2,0661.9,31.1
2021-06-25T08:37:00Z,00000200,00000000,0000.17,-000.08,0000.02,0000.32,0000.08,-000.14,-000.43,0000.30,-000.02,18.4,24.7,11.9,08.1,0661.9,31.1
2021-06-25T08:38:00Z,00000200,00000000,0000.71,0000.01,-000.23,-000.02,-000.08,0000.16,0000.28,-000.23,-000.19,18.4,24.7,12.0,08.2,0661.9,31.1
2021-06-25T08:39:00Z,00000200,00000000,0000.75,-000.08,0000.06,0000.32,0000.12,-000.02,-000.03,-000.06,0000.19,18.4,24.7,12.0,08.2,0661.8,31.1
2021-06-25T08:40:00Z,00000200,00000000,0000.27,0000.17,-000.09,0000.20,0000.29,-000.14,0000.20,0000.25,0000.12,18.4,24.7,12.0,08.2,0661.9,31.1
2021-06-25T08:41:00Z,00000200,00000000,0000.34,0000.25,-000.04,-000.03,-000.04,-000.12,0000.02,-000.20,-000.18,18.4,24.7,12.1,08.3,0661.8,31.1
2021-06-25T08:42:00Z,00000200,00000000,0000.08,0000.06,-000.22,0000.03,-000.01,0000.01,-000.01,0000.26,-000.00,18.5,24.7,12.1,08.3,0661.8,31.1
2021-06-25T08:43:00Z,00000200,00000000,0000.38,0000.12,-000.22,-000.49,0000.21,-000.08,-000.09,-000.06,0000.26,18.5,24.7,12.0,08.2,0661.9,31.1
2021-06-25T08:44:00Z,00000200,00000000,-000.69,-000.20,-000.19,-000.37,-000.06,-000.15,0000.04,-000.15,-000.32,18.5,24.7,12.0,08.2,0661.9,31.1
2021-06-25T08:45:00Z,00000200,00000000,0000.40,0000.22,0000.13,0000.37,0000.13,-000.01,-000.14,-000.01,-000.03,18.4,24.7,12.0,08.2,0661.8,31.1
2021-06-25T08:46:00Z,00000200,00000000,-000.15,0000.19,0000.09,-000.32,-000.04,0000.03,0000.04,0000.04,-000.15,18.5,24.7,12.0,08.2,0661.9,31.1
2021-06-25T08:47:00Z,00000200,00000000,-000.31,0000.03,-000.24,-000.33,0000.17,0000.11,0000.06,0000.04,0000.14,18.5,24.7,12.0,08.2,0661.9,31.2
2021-06-25T08:48:00Z,00000200,00000000,0000.16,0000.27,0000.15,-000.59,0000.20,0000.22,0000.30,-000.08,0000.19,18.5,24.7,12.1,08.2,0661.9,31.1
2021-06-25T08:49:00Z,00000200,00000000,0000.52,0000.13,0000.01,0000.05,-000.01,0000.07,-000.23,0000.00,-000.16,18.5,24.7,12.1,08.3,0661.9,31.1
2021-06-25T08:50:00Z,00000200,00000000,0000.02,0000.35,0000.11,-000.20,0000.18,0000.09,0000.23,0000.13,0000.13,18.5,24.7,12.0,08.2,0661.9,31.1
2021-06-25T08:51:00Z,00000200,00000000,0000.99,0000.32,-000.01,0000.38,-000.01,-000.08,-000.12,-000.04,-000.05,18.5,24.7,12.2,08.3,0661.9,31.1
2021-06-25T08:52:00Z,00000200,00000000,0000.54,0000.62,0000.07,-000.08,-000.05,-000.41,0000.22,0000.10,0000.19,18.5,24.7,12.2,08.3,0661.8,31.1
2021-06-25T08:53:00Z,00000200,00000000,0000.68,0000.21,0000.05,-000.48,0000.02,-000.09,-000.38,0000.02,0000.03,18.5,24.7,12.2,08.3,0661.8,31.1
2021-06-25T08:54:00Z,00000200,00000000,0000.58,0000.40,0000.24,0000.28,0000.41,-000.03,0000.26,0000.12,0000.12,18.5,24.7,12.1,08.3,0661.9,31.1
2021-06-25T08:55:00Z,00000200,00000000,0000.53,0000.30,0000.25,-000.02,0000.10,-000.15,0000.13,0000.10,-000.43,18.5,24.7,12.0,08.2,0661.8,31.1
2021-06-25T08:56:00Z,00000200,00000000,-000.20,0000.25,0000.09,-000.07,0000.16,0000.05,-000.20,-000.48,0000.22,18.5,24.7,11.8,08.1,0661.8,31.1
2021-06-25T08:57:00Z,00000200,40000000,,,,,,,-000.13,0000.10,0000.21,18.5,24.7,11.8,08.1,0661.8,31.1
2021-06-25T08:58:00Z,00000200,60000000,,,,,,,-000.14,-000.18,-000.27,18.3,24.8,11.7,07.8,0660.9,31.1
2021-06-25T08:59:00Z,00000200,20000000,,,,,,,0000.05,0000.21,-000.24,18.3,24.9,11.7,07.8,0660.8,31.1
